Location: Unspecified
(43.3830°N, 0.0000°E)
Time: 07:26:15
(UTC+00:00)

Explorer 7 - Pass Details

Date: 03 July 2019
Orbit: 485 x 680 km, 50.3° (Epoch: 22 July)

Event Time Altitude Azimuth Distance (km) Brightness Sun altitude
Rises 11:16:21 0° 294° (WNW) 2,853 10.3 67.3°
Reaches altitude 10° 11:18:48 10° 283° (WNW) 1,980 9.6 67.5°
Maximum altitude 11:22:47 30° 223° (SW) 1,142 9.0 67.9°
Drops below altitude 10° 11:26:56 10° 162° (SSE) 2,062 10.2 68.2°
Sets 11:29:32 0° 152° (SSE) 2,991 10.9 68.4°
